Hourly Weather Ludenscheid

Today, 20 June, Sunday

Time Temperature Precipitation Wind Pressure Humidity
00:00 +20°C° 1.1 mm 3 mps 721 mmHg 86%
01:00 +20°C° 0 mm 3 mps 720 mmHg 89%
02:00 +19°C° 4.8 mm 3 mps 720 mmHg 91%
03:00 +18°C° 4.8 mm 3 mps 720 mmHg 92%
04:00 +18°C° 4.8 mm 3 mps 720 mmHg 94%
05:00 +18°C° 0 mm 3 mps 721 mmHg 92%
06:00 +19°C° 0 mm 4 mps 721 mmHg 89%
07:00 +20°C° 0 mm 4 mps 721 mmHg 86%
08:00 +21°C° 0 mm 4 mps 722 mmHg 73%
09:00 +22°C° 0 mm 4 mps 722 mmHg 61%
10:00 +23°C° 0 mm 5 mps 722 mmHg 48%
11:00 +25°C° 0 mm 4 mps 722 mmHg 45%
12:00 +26°C° 0 mm 4 mps 722 mmHg 43%
13:00 +26°C° 0 mm 4 mps 722 mmHg 41%
14:00 +26°C° 0 mm 3 mps 722 mmHg 43%
15:00 +26°C° 0 mm 2 mps 721 mmHg 44%
16:00 +26°C° 0 mm 2 mps 721 mmHg 46%
17:00 +25°C° 0 mm 1 mps 721 mmHg 52%
18:00 +24°C° 0 mm 1 mps 720 mmHg 58%
19:00 +24°C° 0 mm 1 mps 720 mmHg 65%
20:00 +22°C° 0 mm 1 mps 720 mmHg 68%
21:00 +21°C° 0 mm 1 mps 720 mmHg 71%
22:00 +20°C° 0 mm 1 mps 720 mmHg 74%
23:00 +19°C° 0.2 mm 1 mps 720 mmHg 80%

Tomorrow, 21 June, Monday

Time Temperature Precipitation Wind Pressure Humidity
00:00 +18°C° 0.2 mm 1 mps 719 mmHg 85%
01:00 +18°C° 0.2 mm 1 mps 719 mmHg 91%
02:00 +18°C° 0.3 mm 1 mps 719 mmHg 93%
03:00 +16°C° 0.3 mm 1 mps 719 mmHg 94%
04:00 +16°C° 0.3 mm 1 mps 719 mmHg 96%
05:00 +16°C° 0.2 mm 1 mps 719 mmHg 95%
06:00 +17°C° 0.2 mm 2 mps 719 mmHg 94%
07:00 +17°C° 0.2 mm 2 mps 719 mmHg 93%
08:00 +17°C° 0.2 mm 2 mps 719 mmHg 92%
09:00 +17°C° 0.2 mm 3 mps 720 mmHg 91%
10:00 +18°C° 0.2 mm 3 mps 720 mmHg 90%
11:00 +17°C° 0.1 mm 3 mps 720 mmHg 90%
12:00 +17°C° 0.1 mm 3 mps 721 mmHg 90%
13:00 +17°C° 0.1 mm 3 mps 721 mmHg 90%
14:00 +17°C° 0 mm 3 mps 722 mmHg 87%
15:00 +17°C° 0 mm 3 mps 722 mmHg 85%
16:00 +17°C° 0 mm 3 mps 722 mmHg 83%
17:00 +16°C° 0 mm 3 mps 722 mmHg 85%
18:00 +14°C° 0 mm 3 mps 723 mmHg 87%
19:00 +14°C° 0 mm 2 mps 723 mmHg 89%
20:00 +14°C° 0 mm 2 mps 723 mmHg 90%
21:00 +13°C° 0 mm 2 mps 723 mmHg 91%
22:00 +13°C° 0 mm 2 mps 724 mmHg 92%
23:00 +13°C° 0 mm 2 mps 724 mmHg 92%

Day after tomorrow, 22 June, Tuesday

Time Temperature Precipitation Wind Pressure Humidity
00:00 +13°C° 0 mm 1 mps 724 mmHg 92%
01:00 +13°C° 0 mm 1 mps 724 mmHg 92%
02:00 +12°C° 0.1 mm 1 mps 724 mmHg 93%
03:00 +12°C° 0.1 mm 2 mps 724 mmHg 94%
04:00 +12°C° 0.1 mm 2 mps 723 mmHg 96%
05:00 +12°C° 0 mm 2 mps 724 mmHg 95%
06:00 +13°C° 0 mm 2 mps 724 mmHg 94%
07:00 +13°C° 0 mm 2 mps 724 mmHg 93%
08:00 +13°C° 0 mm 3 mps 725 mmHg 87%
09:00 +14°C° 0 mm 3 mps 725 mmHg 81%
10:00 +17°C° 0 mm 3 mps 725 mmHg 74%
11:00 +17°C° 0.3 mm 3 mps 725 mmHg 78%
12:00 +17°C° 0.3 mm 3 mps 725 mmHg 81%
13:00 +17°C° 0.3 mm 2 mps 725 mmHg 85%
14:00 +17°C° 0.5 mm 2 mps 725 mmHg 86%
15:00 +17°C° 0.5 mm 2 mps 725 mmHg 87%
16:00 +17°C° 0.5 mm 2 mps 726 mmHg 88%
17:00 +17°C° 1.1 mm 2 mps 726 mmHg 90%
18:00 +16°C° 1.1 mm 2 mps 726 mmHg 92%
19:00 +16°C° 1.1 mm 1 mps 726 mmHg 94%
20:00 +15°C° 0 mm 1 mps 726 mmHg 95%
21:00 +14°C° 0 mm 1 mps 726 mmHg 96%
22:00 +14°C° 0 mm 1 mps 726 mmHg 96%
23:00 +13°C° 0 mm 1 mps 727 mmHg 96%

23 June, Wednesday

Time Temperature Precipitation Wind Pressure Humidity
00:00 +13°C° 0 mm 1 mps 727 mmHg 96%
01:00 +12°C° 0 mm 1 mps 727 mmHg 96%
02:00 +12°C° 0.1 mm 1 mps 727 mmHg 96%
03:00 +12°C° 0.1 mm 1 mps 727 mmHg 96%
04:00 +12°C° 0.1 mm 1 mps 727 mmHg 96%
05:00 +13°C° 0.3 mm 1 mps 727 mmHg 95%
06:00 +13°C° 0.3 mm 1 mps 727 mmHg 94%
07:00 +14°C° 0.3 mm 1 mps 727 mmHg 93%
08:00 +14°C° 1.8 mm 1 mps 728 mmHg 93%
09:00 +15°C° 1.8 mm 1 mps 728 mmHg 93%
10:00 +15°C° 1.8 mm 1 mps 728 mmHg 92%
11:00 +16°C° 1 mm 1 mps 728 mmHg 90%
12:00 +16°C° 1 mm 1 mps 728 mmHg 88%
13:00 +17°C° 1 mm 2 mps 729 mmHg 86%
14:00 +18°C° 0.1 mm 2 mps 729 mmHg 80%
15:00 +19°C° 0.1 mm 2 mps 729 mmHg 73%
16:00 +21°C° 0.1 mm 2 mps 729 mmHg 67%
17:00 +20°C° 0.3 mm 2 mps 728 mmHg 73%
18:00 +19°C° 0.3 mm 2 mps 728 mmHg 79%
19:00 +18°C° 0.3 mm 2 mps 728 mmHg 85%
20:00 +17°C° 0 mm 2 mps 728 mmHg 89%
21:00 +16°C° 0 mm 2 mps 728 mmHg 92%
22:00 +15°C° 0 mm 2 mps 728 mmHg 96%
23:00 +14°C° 0 mm 1 mps 728 mmHg 96%

24 June, Thursday

Time Temperature Precipitation Wind Pressure Humidity
00:00 +14°C° 0 mm 1 mps 728 mmHg 96%
01:00 +13°C° 0 mm 1 mps 728 mmHg 96%
02:00 +13°C° 0 mm 1 mps 728 mmHg 96%
03:00 +12°C° 0 mm 1 mps 728 mmHg 96%
04:00 +12°C° 0 mm 1 mps 728 mmHg 96%
05:00 +13°C° 0 mm 1 mps 728 mmHg 93%
06:00 +14°C° 0 mm 1 mps 728 mmHg 90%
07:00 +15°C° 0 mm 1 mps 728 mmHg 88%
08:00 +16°C° 0 mm 1 mps 728 mmHg 82%
09:00 +18°C° 0 mm 1 mps 728 mmHg 77%
10:00 +19°C° 0 mm 1 mps 728 mmHg 71%
11:00 +20°C° 0 mm 1 mps 728 mmHg 67%
12:00 +21°C° 0 mm 1 mps 728 mmHg 64%
13:00 +20°C° 0 mm 2 mps 728 mmHg 60%
14:00 +21°C° 0 mm 2 mps 728 mmHg 60%
15:00 +21°C° 0 mm 2 mps 728 mmHg 60%
16:00 +21°C° 0 mm 2 mps 728 mmHg 61%
17:00 +20°C° 0.2 mm 2 mps 728 mmHg 68%
18:00 +19°C° 0.2 mm 2 mps 727 mmHg 75%
19:00 +18°C° 0.2 mm 2 mps 727 mmHg 83%
20:00 +18°C° 0.1 mm 1 mps 727 mmHg 86%
21:00 +16°C° 0.1 mm 1 mps 727 mmHg 89%
22:00 +14°C° 0.1 mm 0 mps 727 mmHg 92%
23:00 +14°C° 0 mm 1 mps 727 mmHg 93%

25 June, Friday

Time Temperature Precipitation Wind Pressure Humidity
00:00 +14°C° 0 mm 1 mps 727 mmHg 94%
01:00 +14°C° 0 mm 1 mps 727 mmHg 94%
02:00 +12°C° 0 mm 0 mps 727 mmHg 95%
03:00 +12°C° 0 mm 0 mps 727 mmHg 96%
04:00 +12°C° 0 mm 0 mps 727 mmHg 96%
05:00 +12°C° 0 mm 0 mps 727 mmHg 94%
06:00 +13°C° 0 mm 0 mps 727 mmHg 92%
07:00 +15°C° 0 mm 1 mps 727 mmHg 89%
08:00 +16°C° 0 mm 1 mps 727 mmHg 81%
09:00 +19°C° 0 mm 1 mps 727 mmHg 72%
10:00 +19°C° 0 mm 2 mps 728 mmHg 64%
11:00 +19°C° 0 mm 2 mps 728 mmHg 61%
12:00 +20°C° 0 mm 2 mps 728 mmHg 57%
13:00 +21°C° 0 mm 2 mps 728 mmHg 54%
14:00 +21°C° 0 mm 2 mps 728 mmHg 54%
15:00 +21°C° 0 mm 2 mps 728 mmHg 55%
16:00 +21°C° 0 mm 2 mps 728 mmHg 55%
17:00 +20°C° 0 mm 2 mps 728 mmHg 59%
18:00 +21°C° 0 mm 1 mps 728 mmHg 63%
19:00 +20°C° 0 mm 1 mps 728 mmHg 68%
20:00 +19°C° 0 mm 1 mps 728 mmHg 71%
21:00 +16°C° 0 mm 1 mps 728 mmHg 75%
22:00 +14°C° 0 mm 1 mps 728 mmHg 79%
23:00 +14°C° 0 mm 1 mps 728 mmHg 79%
Show more

We Need Your Consent

Meteoprog and our Service Providers may store and access personal data such as cookies, device identifiers or other similar technologies on your device and process such data to personalise content and ads, as well as provide social media features and to analyse the traffic.

  • Store and/or access information on your device

    Cookies, device identifiers or other information can be stored or accessed on your device for the purposes indicated above.

  • Personalised ads and content, ad and content measurement, audience insights, and products development

    Ads and content can be personalised based on a profile. More data can be added to better personalise ads and content. Ad and content performance can be measured. Insights about the audience who saw the ads and content can be derived. Such data can be used to develop or improve user’s experience, systems and software.

By clicking ‘I Agree’ you will allow the use of indicated cookies, device identifiers, web beacons or other similar technologies. Your settings can be changed in the browser on your device.

For certain purposes, legitimate interests may be relied on, rather than consent. You can read more about this in our Privacy and Cookie Policy.